Terminal Aerodrome Forecast
Issued by NWS Greer, SC

Home | Current Version | Previous Version | Text Only | Print | Product List | Glossary On
Versions: 1 2 3 4 5 6 7 8 9 10 11 12 13 14 15 16 17 18 19 20 21 22 23 24 25 26 27 28 29 30 31 32 33 34 35 36 37 38 39 40 41 42 43 44 45 46 47 48 49 50
000
FTUS42 KGSP 281100
TAFAVL
TAF
KAVL 281122Z 2812/2912 35011KT P6SM SCT120
     FM281500 34014G22KT P6SM SCT120
     FM281700 34015G24KT P6SM FEW045 SCT250
     FM290000 34009KT P6SM SCT250
     FM290300 00000KT P6SM SCT040
     FM290900 00000KT 5SM BR SCT009=

USA.gov is the U.S. government's official web portal to all federal, state and local government web resources and services.